Location: Schommer Observatory
(40.5200°N, 74.4500°W)
Time: 17:33:09
(UTC-04:00)

Tiangong 2 - Pass Details

Date: 14 October 2017
Orbit: 388 x 391 km, 42.8° (Epoch: 21 October)

Event Time Altitude Azimuth Distance (km) Brightness Sun altitude
Exits shadow 06:30:51 10° 286° (WNW) 1,411 3.3 -7.8°
Maximum altitude 06:34:00 60° 8° (N) 450 1.4 -7.2°
Drops below altitude 10° 06:37:10 10° 89° (E) 1,421 5.7 -6.6°
Sets 06:39:16 0° 93° (E) 2,276 7.8 -6.2°
